Date,TemperatureHighF,TemperatureAvgF,TemperatureLowF,DewpointHighF,DewpointAvgF,DewpointLowF,HumidityHigh,HumidityAvg,HumidityLow,PressureMaxIn,PressureMinIn,WindSpeedMaxMPH,WindSpeedAvgMPH,GustSpeedMaxMPH,PrecipitationSumIn
2013-1-1,29.7,24.5,22.1,19.3,13.7,9.7,72,63,57,30.25,30.12,9,4,14,0.01
2013-1-2,31.1,22.4,17.1,25.3,9.5,1.8,81,58,46,30.26,30.08,13,7,17,0.00
2013-1-3,32.5,31.2,29.1,25.5,23.1,21.4,81,72,65,30.25,30.14,27,9,32,0.00
2013-1-4,35.4,29.3,23.9,24.7,20.5,16.8,78,69,55,30.38,30.02,26,9,33,0.00
2013-1-5,38.7,31.8,21.6,31.3,24.4,15.8,92,75,55,30.35,29.90,17,7,24,0.00
2013-1-6,36.3,34.5,31.6,31.3,27.7,22.7,84,76,62,30.19,29.90,21,7,29,0.00
2013-1-7,37.8,31.4,25.7,24.3,21.1,16.3,77,66,44,30.37,30.08,22,8,26,0.00
2013-1-8,43.0,37.6,33.8,28.3,26.0,23.6,68,63,53,30.22,30.11,17,7,21,0.00
2013-1-9,48.9,41.8,34.7,33.9,30.4,24.1,79,64,43,30.42,30.03,24,10,32,0.00
2013-1-10,69.4,35.7,26.6,53.5,27.8,21.7,97,74,53,30.50,29.44,22,5,29,0.13
2013-1-11,56.8,49.0,37.9,52.6,46.6,14.9,99,92,67,30.15,29.29,25,11,33,0.26
2013-1-12,57.2,49.4,38.3,49.3,42.9,34.6,92,78,66,29.96,29.76,24,8,33,0.11
2013-1-13,37.9,32.3,22.6,35.8,29.0,15.6,94,88,71,30.18,29.81,10,2,17,0.08
2013-1-14,30.7,24.2,21.2,24.1,15.3,13.1,76,69,61,30.51,30.18,0,0,0,0.00
2013-1-15,36.9,25.2,16.3,22.2,15.5,10.9,85,68,45,30.44,30.12,5,0,8,0.01
2013-1-16,36.9,29.6,19.2,28.3,19.3,8.5,85,67,35,30.17,29.77,27,8,43,0.01
2013-1-17,37.2,31.7,25.0,29.5,17.5,7.8,74,56,43,30.35,29.99,16,6,29,0.00
2013-1-18,41.0,32.2,25.5,26.2,18.0,8.1,66,55,44,30.44,29.91,30,11,39,0.01
2013-1-19,49.1,43.4,39.0,36.1,30.9,26.0,71,61,54,30.01,29.70,35,14,53,0.04
2013-1-20,41.5,21.1,17.4,27.0,6.3,2.0,63,53,35,30.26,29.77,38,8,58,0.18
2013-1-21,39.2,14.1,8.2,30.9,2.2,-5.1,72,59,45,30.25,30.10,21,8,31,0.00
2013-1-22,39.2,9.2,6.3,5.1,0.3,-2.8,72,67,58,30.38,29.78,17,6,28,0.00
2013-1-23,20.7,15.7,12.4,17.1,6.6,-2.3,86,67,50,30.38,30.07,19,6,23,0.00
2013-1-24,22.8,15.9,8.4,16.7,3.0,-9.4,83,59,28,30.62,30.24,14,2,25,0.00
2013-1-25,27.9,21.4,15.8,20.6,10.4,-2.8,79,63,43,30.51,29.95,14,5,21,0.00
2013-1-26,33.6,26.8,22.8,21.8,15.2,11.6,72,61,54,30.48,30.11,12,3,18,0.00
2013-1-27,40.1,27.8,22.1,30.9,19.3,12.3,88,70,60,30.53,29.97,15,4,25,0.04
2013-1-28,48.2,40.7,34.2,47.9,40.1,31.0,99,98,88,30.01,29.77,18,5,24,0.04
2013-1-29,59.9,54.3,36.7,58.0,53.2,26.4,99,96,87,30.26,29.27,23,12,36,0.28
2013-1-30,52.2,40.6,26.2,51.6,39.7,22.1,99,97,85,29.48,29.09,27,6,37,0.66
2013-1-31,26.2,18.8,14.2,22.1,11.0,5.9,84,71,56,30.08,29.48,29,12,41,0.00
2013-2-1,14.5,12.1,10.4,8.8,5.2,2.3,78,73,65,30.35,30.08,20,9,26,0.00
2013-2-2,35.1,19.1,14.0,34.0,14.8,5.2,96,83,66,30.27,30.04,16,5,22,0.00
2013-2-3,23.5,19.9,15.1,16.7,12.4,10.0,86,73,59,30.08,29.93,18,6,28,0.00
2013-2-4,31.6,24.1,19.8,22.5,17.7,11.5,86,77,61,30.04,29.76,10,2,15,0.00
2013-2-5,32.2,24.9,15.3,27.8,19.9,9.7,95,81,65,30.05,29.79,17,5,22,0.00
2013-2-6,40.3,32.1,22.1,24.4,19.0,13.3,78,59,43,30.42,30.05,12,4,16,0.05
2013-2-7,41.9,34.3,28.9,31.4,26.7,21.8,92,74,59,30.22,29.79,14,3,22,0.12
2013-2-8,37.9,32.2,28.0,31.3,24.6,19.2,94,75,56,30.47,29.86,10,2,20,0.13
2013-2-9,39.0,28.6,16.9,24.2,18.1,11.2,83,65,49,30.53,30.13,12,4,18,0.01
2013-2-10,47.5,37.4,28.2,45.6,30.4,17.6,97,76,64,30.21,29.58,22,8,32,0.09
2013-2-11,49.3,36.6,30.9,45.0,26.4,20.0,91,66,58,30.00,29.58,39,18,62,0.20
2013-2-12,30.9,29.2,28.0,23.4,20.5,17.1,75,70,63,30.17,29.93,21,7,26,0.00
2013-2-13,47.7,34.9,23.2,31.4,25.4,17.3,82,69,48,29.96,29.62,14,4,21,0.00
2013-2-14,41.4,36.7,34.3,33.5,28.3,22.6,81,72,61,29.93,29.69,27,10,37,0.00
2013-2-15,34.5,28.9,24.1,26.1,18.1,8.2,86,65,44,30.22,29.93,14,3,22,0.01
2013-2-16,26.8,20.7,16.5,16.7,9.1,-0.5,82,61,42,30.23,30.17,18,5,25,0.00
2013-2-17,33.1,22.6,14.9,16.6,8.1,-0.6,77,56,29,30.30,30.02,12,2,16,0.01
2013-2-18,52.3,39.1,23.0,45.0,26.5,8.4,91,62,47,30.09,29.33,31,12,43,0.07
2013-2-19,45.7,22.0,16.3,43.2,16.0,8.2,94,78,67,29.96,29.35,28,14,41,0.20
2013-2-20,25.2,20.7,16.7,17.1,12.7,7.3,79,71,66,30.37,29.95,14,6,23,0.00
2013-2-21,34.7,25.1,21.7,18.1,15.1,13.5,71,66,57,30.43,30.07,19,4,28,0.00
2013-2-22,34.3,28.1,22.1,32.0,22.7,12.8,91,80,64,30.11,29.86,23,8,29,0.00
2013-2-23,41.0,28.0,27.0,33.3,18.9,15.0,78,68,59,30.06,29.92,22,10,29,0.00
2013-2-24,42.1,30.4,23.0,36.3,21.9,16.3,86,71,57,30.15,29.93,14,4,18,0.01
2013-2-25,48.2,32.1,18.3,25.5,20.2,13.5,86,64,36,30.25,29.88,9,2,13,0.01
2013-2-26,36.5,33.2,30.4,31.1,26.7,20.3,93,78,52,30.00,29.57,12,3,25,0.20
2013-2-27,34.9,33.7,32.9,33.2,32.0,31.1,95,93,89,29.70,29.53,7,1,10,0.25
2013-2-28,42.1,34.9,32.0,33.5,29.7,24.8,95,81,51,30.44,29.71,14,5,27,0.00
2013-3-1,41.9,32.3,25.3,25.9,21.5,13.9,78,65,49,30.22,30.00,8,2,16,0.00
2013-3-2,35.2,28.4,22.6,19.5,16.0,10.8,66,60,44,30.26,30.03,12,3,22,0.00
2013-3-3,39.4,28.3,23.2,37.2,13.0,6.4,92,53,31,30.20,29.92,12,2,21,0.00
2013-3-4,40.6,29.3,18.1,17.2,13.2,8.6,76,52,31,30.21,29.97,10,2,14,0.00
2013-3-5,32.7,30.4,27.1,26.6,21.9,16.3,91,72,52,30.07,29.76,15,4,24,0.00
2013-3-6,41.0,33.2,27.0,30.7,26.4,23.1,89,77,59,30.19,29.90,32,4,44,0.13
2013-3-7,43.0,33.9,25.3,31.2,26.8,19.6,89,76,55,30.41,30.18,9,2,15,0.01
2013-3-8,48.4,32.6,18.3,25.8,19.6,13.2,86,62,32,30.58,30.20,8,2,10,0.00
2013-3-9,44.6,37.2,28.8,32.1,25.5,18.5,68,63,48,30.38,29.91,18,7,29,0.00
2013-3-10,58.5,49.7,41.0,44.4,39.2,31.7,94,68,57,29.97,29.60,20,6,28,0.21
2013-3-11,53.8,43.9,34.5,49.0,41.6,30.5,98,92,62,29.74,29.38,28,9,34,0.14
2013-3-12,37.2,33.1,29.3,30.6,26.8,19.4,95,78,54,29.97,29.74,25,11,32,0.00
2013-3-13,34.9,29.6,25.7,26.7,15.8,9.2,92,57,38,30.37,29.92,19,8,29,0.00
2013-3-14,40.5,35.0,29.3,27.4,17.6,10.0,74,50,31,30.40,30.11,14,5,21,0.00
2013-3-15,45.3,36.5,31.6,35.1,30.7,25.2,89,80,62,30.18,29.07,17,3,28,0.06
2013-3-16,36.5,33.6,29.5,33.8,27.8,19.5,91,80,65,30.15,29.81,14,3,18,0.00
2013-3-17,41.5,33.2,28.9,22.6,18.3,14.7,69,54,41,30.30,30.07,17,4,23,0.00
2013-3-18,35.2,31.1,28.0,33.4,25.6,16.5,94,80,61,30.11,29.47,28,8,37,0.04
2013-3-19,33.8,26.7,20.8,16.9,12.4,10.0,66,55,43,30.04,29.77,28,15,39,0.06
2013-3-20,29.7,22.5,18.9,14.4,9.0,4.7,78,56,47,30.08,29.90,18,8,28,0.00
2013-3-21,31.6,25.4,19.2,18.2,13.8,10.2,81,61,50,30.11,29.96,18,5,25,0.00
2013-3-22,39.4,31.1,24.6,22.5,16.2,11.7,75,54,41,30.14,29.88,14,3,17,0.00
2013-3-23,43.2,32.5,24.3,26.3,21.4,17.2,86,65,40,30.19,29.96,14,1,21,0.00
2013-3-24,42.4,32.9,25.7,24.5,21.4,17.1,76,63,46,30.10,29.58,10,3,16,0.00
2013-3-25,40.1,34.1,30.7,29.1,23.6,20.0,72,65,55,30.04,29.69,14,5,25,0.00
2013-3-26,41.9,35.5,32.5,31.3,28.0,25.6,88,74,62,30.22,30.04,10,4,18,0.04
2013-3-27,46.6,38.5,31.5,33.3,25.9,14.9,88,63,29,30.33,30.06,14,3,20,0.00
2013-3-28,50.0,39.4,30.6,31.3,23.8,2.9,82,56,29,30.35,30.17,12,3,20,0.00
2013-3-29,53.4,39.0,24.6,34.2,20.0,5.5,88,52,22,30.40,30.15,15,2,22,0.00
2013-3-30,59.0,43.3,24.4,33.5,24.9,17.2,83,52,26,30.36,29.91,16,5,24,0.00
2013-3-31,57.6,47.1,36.9,44.3,37.0,26.5,98,69,45,30.34,27.55,18,8,29,0.01
2013-4-1,38.8,34.5,28.0,29.7,15.2,6.1,74,46,28,30.19,29.87,16,5,28,0.00
2013-4-2,43.3,34.3,26.4,18.8,12.2,5.5,64,41,24,30.32,30.11,15,4,23,0.00
2013-4-3,46.2,34.7,24.4,22.4,14.1,8.4,75,46,23,30.51,30.14,14,2,24,0.00
2013-4-4,55.9,41.7,26.1,21.2,16.5,14.0,72,40,21,30.43,29.87,15,4,21,0.00
2013-4-5,50.7,41.5,32.9,31.5,24.8,13.7,79,54,28,30.24,29.96,14,3,23,0.00
2013-4-6,67.8,50.0,32.9,42.1,28.4,21.6,74,46,27,30.24,29.57,30,10,44,0.00
2013-4-7,63.5,50.3,40.3,48.5,38.8,32.1,88,66,43,29.87,29.55,44,8,55,0.08
2013-4-8,65.8,47.7,39.7,57.7,41.1,32.7,99,79,65,29.91,29.61,34,7,40,0.20
2013-4-9,73.9,51.8,39.7,61.0,47.0,39.4,99,85,61,30.01,29.71,10,3,15,0.02
2013-4-10,50.4,49.2,47.3,47.8,46.2,44.2,91,90,88,29.81,29.79,7,4,10,0.01
2013-4-11,43.7,40.8,37.4,43.2,40.0,34.3,99,97,85,29.70,29.57,15,7,20,0.04
2013-4-12,45.7,40.1,36.0,38.2,33.6,27.5,86,78,69,29.94,29.70,20,11,29,0.04
2013-4-13,43.5,39.2,33.4,33.1,29.8,26.2,86,70,52,30.10,29.86,17,5,23,0.00
2013-4-14,62.1,56.1,40.5,45.8,42.0,32.1,72,60,49,30.01,29.54,24,12,32,0.00
2013-4-15,60.4,57.3,54.7,48.2,46.2,44.2,70,66,61,29.79,29.60,23,11,33,0.00
2013-4-21,50.9,41.5,36.3,32.0,30.2,28.2,75,65,46,30.39,30.34,7,5,13,0.00
2013-4-22,67.5,61.4,50.5,34.4,29.9,24.9,46,31,21,30.35,29.89,10,5,15,0.00
2013-4-23,66.0,50.9,37.7,52.7,43.0,34.1,99,77,46,30.03,29.78,14,5,21,0.56
2013-4-24,50.5,41.5,36.3,37.5,31.0,18.8,99,69,30,30.18,29.92,14,5,23,0.09
2013-4-25,52.0,44.3,39.6,39.8,34.4,30.7,96,69,47,30.34,30.09,26,7,31,0.01
2013-4-26,66.7,49.9,36.0,44.1,35.1,29.6,84,60,37,30.43,30.11,22,7,29,0.00
2013-4-27,64.0,62.6,61.0,44.4,41.9,40.8,54,47,43,29.88,29.86,6,1,15,0.00
2013-4-28,62.2,55.8,48.4,56.1,51.1,44.7,99,85,55,29.88,29.73,8,1,10,0.07
2013-4-29,73.8,59.6,43.7,56.7,51.1,43.2,99,77,49,29.94,29.66,18,5,23,0.00
2013-4-30,84.2,70.4,56.8,63.1,58.2,24.8,98,67,43,29.92,29.60,24,10,29,0.09
2013-5-1,86.9,74.9,62.1,61.9,57.7,16.9,83,58,34,30.16,29.67,18,4,24,0.00
2013-5-2,70.0,58.4,42.6,58.1,50.4,41.1,96,75,63,29.95,29.74,12,3,15,0.00
2013-5-3,69.4,54.4,41.5,57.4,49.6,41.2,99,85,58,30.03,29.84,12,2,17,0.00
2013-5-4,77.2,66.6,58.1,55.8,46.0,37.1,82,49,25,29.96,29.69,14,5,21,0.00
2013-5-5,81.1,64.4,49.8,50.4,45.7,38.6,78,54,26,29.93,29.74,12,2,21,0.00
2013-5-6,80.8,64.3,52.5,50.2,42.8,29.5,76,50,17,29.96,29.65,7,1,15,0.00
2013-5-7,79.7,62.8,46.6,54.4,47.9,41.8,99,63,31,30.00,29.79,8,1,13,0.00
2013-5-8,80.8,65.6,50.5,58.0,48.8,37.0,99,61,22,30.00,29.67,10,1,16,0.00
2013-5-9,84.6,63.8,47.7,62.1,53.2,44.9,99,75,28,29.96,29.70,20,1,25,0.00
2013-5-10,60.8,51.6,43.3,60.3,51.3,42.8,99,99,97,29.94,29.65,15,4,21,0.00
2013-5-11,55.8,45.9,37.8,52.9,42.8,37.3,99,90,64,29.98,29.74,16,4,26,0.00
2013-5-12,53.8,43.9,37.2,39.1,32.8,27.9,99,66,40,30.11,29.85,19,4,23,0.00
2013-5-13,65.3,48.7,33.3,37.8,30.2,3.8,99,57,20,30.22,29.95,9,0,10,0.00
2013-5-14,85.3,66.7,50.5,58.1,45.6,26.1,68,47,36,30.03,29.40,23,5,29,0.00
2013-5-15,82.0,74.4,58.6,62.4,52.8,46.6,81,48,32,29.58,29.36,22,6,31,0.00
2013-5-16,81.1,69.6,52.2,54.7,49.0,41.8,98,52,26,29.73,29.46,9,1,13,0.00
2013-5-17,81.1,66.9,54.9,55.7,49.9,26.7,85,56,39,30.17,29.73,12,2,16,0.00
2013-5-18,82.9,69.9,57.0,63.2,53.9,43.8,93,58,44,29.95,29.66,10,2,13,0.00
2013-5-19,89.4,75.2,58.8,66.9,61.1,53.7,94,64,42,29.82,29.47,14,3,18,0.00
2013-5-20,89.4,80.3,71.2,72.0,66.9,24.1,93,66,36,30.14,29.45,25,8,37,0.00
2013-5-21,83.7,72.9,40.3,68.7,65.6,24.9,99,79,54,30.15,29.42,18,6,25,0.09
2013-5-22,73.0,68.0,62.2,69.0,65.2,59.6,99,91,71,29.47,29.36,15,4,22,0.08
2013-5-23,62.6,48.2,42.3,59.9,47.0,40.9,99,96,80,30.17,29.45,16,5,30,0.07
2013-5-24,57.9,46.8,38.1,42.4,38.1,33.5,99,75,41,30.45,30.02,9,1,14,0.00
2013-5-25,67.6,52.8,38.3,50.3,43.6,22.9,99,74,43,30.42,30.04,8,1,10,0.00
2013-5-26,73.4,58.2,41.5,49.7,43.0,39.8,99,63,32,30.33,30.03,9,2,14,0.00
2013-5-27,62.8,57.5,53.2,57.0,51.3,38.2,99,83,42,30.10,29.85,21,5,29,0.12
2013-5-28,79.9,69.0,56.1,72.5,65.6,26.1,99,89,71,29.92,29.52,20,7,31,0.58
2013-5-29,87.3,73.5,62.8,72.2,66.3,61.9,99,80,59,29.76,29.58,14,4,23,0.05
2013-5-30,87.3,77.7,70.7,72.6,68.2,63.1,90,73,54,29.76,29.63,22,8,33,0.01
2013-5-31,77.4,72.9,65.5,69.8,67.6,28.3,99,84,73,30.33,29.51,20,7,26,0.19
2013-6-1,78.3,71.0,61.2,69.1,65.3,59.9,99,83,64,29.55,29.38,19,8,29,0.18
2013-6-2,63.1,55.6,45.5,62.3,50.7,41.9,99,84,61,29.86,29.43,12,5,21,0.02
2013-6-3,69.3,54.6,40.6,49.8,44.3,38.6,99,73,35,30.11,29.77,10,1,13,0.00
2013-6-4,73.9,60.3,44.6,53.0,46.1,39.4,99,66,30,30.74,29.90,5,0,10,0.00
2013-6-5,82.6,67.3,56.8,53.5,48.8,43.5,86,54,31,30.03,29.63,9,2,14,0.00
2013-6-6,72.7,64.0,54.3,58.4,52.2,47.2,92,67,45,29.73,29.61,8,2,14,0.00
2013-6-7,73.8,66.1,50.5,56.6,50.2,19.7,86,58,41,30.25,29.52,9,2,16,0.00
2013-6-8,78.1,62.0,46.2,55.5,49.9,43.5,99,69,31,29.94,29.67,8,1,12,0.00
2013-6-9,82.9,71.2,56.7,65.5,59.5,50.9,94,69,44,29.91,29.47,12,3,17,0.00
2013-6-10,77.2,68.3,59.9,69.3,65.4,59.6,99,91,66,29.62,29.47,14,2,22,0.12
2013-6-11,86.5,70.6,58.5,69.1,63.1,58.2,99,80,49,29.75,29.50,12,3,17,0.00
2013-6-12,91.4,75.6,63.5,76.8,70.0,62.6,99,84,59,29.68,29.35,18,1,35,0.18
2013-6-13,70.7,65.3,57.2,64.4,58.4,54.4,99,79,64,29.77,29.39,18,4,31,0.08
2013-6-14,78.1,63.3,51.6,62.9,55.9,51.3,99,79,49,29.98,29.67,1,0,18,0.00
2013-6-15,58.1,56.5,55.6,56.6,56.0,55.3,99,98,94,29.84,29.77,0,0,1,0.00
2013-6-16,86.7,78.8,70.2,68.2,63.1,54.7,82,60,36,29.71,29.50,10,3,32,0.02
2013-6-17,88.9,74.2,60.3,68.2,59.6,49.7,99,67,27,29.78,29.56,15,1,22,0.09
2013-6-18,80.4,67.6,57.9,63.2,59.8,51.5,99,79,50,29.85,29.64,6,0,9,0.00
2013-6-19,81.3,65.4,50.2,53.6,47.6,39.5,98,59,24,30.07,29.78,1,0,2,0.00
2013-6-20,91.4,72.7,52.3,63.2,57.3,51.8,99,64,31,30.09,29.56,10,0,14,0.00
2013-6-21,87.6,75.2,67.6,70.4,66.0,61.9,99,75,44,29.99,29.78,17,3,24,0.21
2013-6-22,87.1,77.0,68.4,75.7,71.2,66.8,99,83,64,29.91,29.65,10,3,15,0.00
2013-6-23,90.0,78.1,67.6,73.4,68.9,65.8,98,76,48,29.82,29.62,10,3,17,0.00
2013-6-24,87.8,76.5,67.6,72.5,68.6,37.8,97,79,49,29.86,29.67,29,4,41,0.04
2013-6-25,88.9,74.8,66.9,78.0,70.7,66.4,99,88,64,29.81,29.58,12,2,21,0.48
2013-6-26,85.5,74.1,66.2,74.6,69.8,13.8,99,88,60,30.32,29.51,12,2,18,0.34
2013-6-27,88.9,73.1,63.9,74.6,69.3,63.0,99,89,60,29.60,29.47,4,0,7,0.21
2013-6-28,77.7,67.8,63.5,68.3,65.4,62.6,99,93,68,29.51,29.41,2,0,4,0.01
2013-7-1,74.5,68.9,66.4,66.4,54.3,51.0,76,60,49,29.84,29.41,1,0,2,0.01
2013-7-2,66.4,61.5,58.6,61.9,58.0,50.2,99,89,63,29.94,29.81,6,1,9,0.78
2013-7-3,79.3,68.1,60.3,70.0,64.4,60.0,99,89,63,29.99,29.78,9,1,13,0.00
2013-7-4,81.5,70.9,59.9,67.2,63.6,59.4,99,80,54,29.99,26.79,8,1,10,0.00
2013-7-5,88.9,74.3,61.0,69.4,65.2,60.1,99,77,45,29.98,29.83,0,0,2,0.00
2013-7-6,86.4,74.9,68.2,73.0,70.2,67.9,99,86,59,29.91,29.72,8,0,12,0.00
2013-7-7,88.3,77.1,69.1,74.3,71.3,28.2,99,84,59,29.93,29.67,13,2,21,0.00
2013-7-8,81.0,76.8,73.4,75.6,73.0,69.0,98,88,73,29.86,29.70,14,4,20,0.22
2013-7-9,88.0,77.3,68.2,79.2,73.9,67.9,99,90,71,29.81,29.67,12,2,18,0.00
2013-7-10,81.7,76.9,62.2,78.1,67.2,59.1,97,74,52,29.80,29.64,15,4,29,0.00
2013-7-11,81.3,69.2,57.6,66.9,58.6,34.5,99,73,39,30.26,29.80,4,0,6,0.00
2013-7-12,87.3,70.7,55.4,66.8,61.1,55.1,99,76,45,30.06,29.82,1,0,2,0.00
2013-7-13,88.5,73.8,58.3,67.9,63.5,31.1,99,74,45,30.06,29.65,22,0,29,0.00
2013-7-14,94.5,80.0,66.4,73.5,69.4,65.2,99,73,46,30.00,29.81,3,0,5,0.00
2013-7-15,95.4,79.5,71.4,79.2,75.3,70.7,99,89,54,30.09,29.95,9,0,13,0.30
2013-7-16,95.9,83.4,73.2,78.5,74.9,72.3,99,78,51,30.16,29.97,1,0,3,0.00
2013-7-17,95.7,83.7,73.2,77.8,74.9,39.7,99,77,48,30.11,29.85,6,0,9,0.00
2013-7-18,96.3,84.9,74.5,78.8,75.7,29.5,99,76,49,30.06,29.67,9,2,13,0.00
2013-7-19,94.8,85.5,77.0,76.2,73.9,69.8,94,70,46,29.81,29.50,19,7,30,0.00
2013-7-20,90.9,81.3,71.8,75.0,68.4,60.2,99,68,40,29.68,29.52,16,1,25,0.00
2013-7-21,95.2,76.9,63.5,72.7,66.2,61.1,97,72,42,29.75,29.56,10,0,14,0.01
2013-7-22,88.5,76.4,66.7,71.7,68.8,66.0,99,80,48,29.70,29.51,18,4,18,0.00
2013-7-23,78.1,72.3,61.0,71.5,64.6,53.0,92,77,59,29.77,29.49,20,5,29,0.00
2013-7-24,75.9,63.4,50.9,56.6,52.4,48.3,97,70,43,29.99,29.72,10,1,17,0.00
2013-7-25,84.2,65.6,52.2,61.0,54.5,44.2,99,72,29,30.04,29.71,8,0,13,0.00
2013-7-26,77.7,68.2,62.2,64.8,60.1,53.8,96,76,55,29.91,29.71,18,5,25,0.00
2013-7-27,70.7,64.2,59.9,65.4,59.0,49.0,99,84,66,29.75,29.67,10,2,21,0.00
2013-7-28,70.2,61.6,55.0,55.9,53.2,50.6,96,74,58,29.82,29.71,15,5,24,0.04
2013-7-29,74.5,65.7,55.4,59.9,57.4,46.6,97,76,53,30.00,29.83,6,0,14,0.00
2013-7-30,82.6,66.9,51.4,64.4,58.2,43.3,99,77,46,30.14,29.86,8,0,10,0.00
2013-7-31,80.6,67.5,63.9,69.7,66.3,60.8,99,96,85,30.02,29.77,8,1,10,0.01
2013-8-1,81.3,70.7,61.5,69.2,62.1,-86.9,99,77,39,29.85,29.66,13,1,229,0.01
2013-8-2,82.4,67.9,57.2,70.4,63.4,49.2,99,86,65,29.85,29.58,15,2,22,0.54
2013-8-3,80.2,71.0,59.0,70.7,61.2,54.1,99,75,43,29.85,29.66,12,1,18,0.00
2013-8-4,77.7,65.8,55.4,60.6,56.2,52.1,99,75,45,30.08,29.77,3,0,5,0.00
2013-8-5,76.5,64.1,42.4,65.4,58.0,32.6,99,82,59,30.04,29.71,9,1,13,0.00
2013-8-6,83.5,71.4,63.3,73.0,67.7,25.4,99,89,68,30.20,29.57,10,4,14,0.12
2013-8-7,87.1,73.8,65.3,75.2,69.9,64.9,99,89,63,29.78,29.55,14,3,21,0.00
2013-8-8,85.3,70.3,60.8,65.4,61.4,57.8,99,77,44,29.85,29.63,8,0,13,0.00
2013-8-9,84.0,71.2,57.4,66.4,61.3,56.5,99,74,44,29.80,29.57,3,0,4,0.00
2013-8-10,68.9,68.4,67.8,67.7,67.4,65.9,97,97,93,29.81,29.71,0,0,1,0.00
2013-8-11,68.4,68.4,68.4,67.5,67.5,67.5,97,97,97,29.81,29.81,0,0,0,0.00
2013-8-12,68.4,68.4,68.4,67.5,67.5,67.5,97,97,97,29.81,29.81,0,0,0,0.00
2013-8-13,68.4,68.4,68.4,67.5,67.5,67.5,97,97,97,29.81,29.81,0,0,0,0.00
2013-8-14,68.4,68.4,68.4,67.5,67.5,67.5,97,97,97,29.81,29.81,0,0,0,0.00
2013-8-25,68.4,68.4,68.4,67.5,67.5,67.5,97,97,97,29.81,29.81,0,0,0,0.00
2013-8-26,68.4,68.4,68.4,67.5,67.5,67.5,97,97,97,29.81,29.81,0,0,0,0.00
2013-8-27,68.4,68.4,68.4,67.5,67.5,67.5,97,97,97,29.81,29.81,0,0,0,0.00
2013-8-28,87.1,74.0,68.4,77.4,71.2,67.5,99,92,71,29.84,29.67,7,0,12,0.00
2013-8-29,90.3,75.9,63.0,77.4,68.9,62.1,99,82,46,29.90,29.68,3,0,7,0.00
2013-8-30,94.6,79.2,67.5,76.8,71.3,67.2,99,80,49,29.79,29.51,11,1,17,0.00
2013-8-31,88.5,74.8,66.7,73.9,69.9,66.5,99,86,58,29.65,29.43,6,0,13,0.00
2013-9-1,84.4,74.9,68.0,74.6,70.5,67.3,99,87,64,29.60,29.42,9,1,13,0.00
2013-9-2,78.6,69.9,59.9,71.6,63.9,55.6,99,82,58,29.77,29.50,9,1,22,0.01
2013-9-3,77.4,65.4,56.7,60.9,57.7,54.7,99,78,54,29.98,29.72,1,0,3,0.00
2013-9-4,82.0,66.9,54.0,65.9,58.5,53.1,99,78,44,30.04,29.70,9,1,12,0.00
2013-9-5,82.2,67.4,55.8,60.8,54.3,37.6,99,69,22,30.14,29.83,2,0,7,0.00
2013-9-6,86.9,67.4,51.6,65.6,56.8,50.0,99,73,38,30.23,29.75,1,0,3,0.00
2013-9-7,87.3,72.8,64.8,72.1,65.3,59.4,99,79,45,29.89,29.61,9,1,10,0.01
2013-9-8,82.4,71.6,64.0,70.5,66.3,63.2,99,85,55,29.78,29.62,5,0,7,0.00
2013-9-9,93.4,77.5,64.4,76.0,68.1,57.9,88,74,53,29.80,29.54,10,3,15,0.00
2013-9-10,95.7,84.5,74.3,75.1,68.8,63.2,90,62,35,29.83,29.66,12,4,18,0.00
2013-9-11,80.2,78.1,76.6,72.1,69.2,66.9,86,74,65,29.83,29.80,10,5,15,0.00
2013-9-12,84.4,66.1,53.4,62.4,53.1,45.7,78,65,36,30.04,29.60,12,2,21,0.00
2013-9-13,67.1,54.3,43.0,49.3,45.4,42.5,99,76,44,30.21,29.80,8,2,14,0.00
2013-9-14,71.6,60.2,51.3,50.8,46.6,42.1,92,63,38,30.24,29.94,2,0,5,0.00
2013-9-15,60.1,57.3,54.3,58.9,55.1,47.6,99,93,74,30.13,30.01,6,1,21,0.01
2013-9-16,70.9,58.5,47.8,56.2,52.6,37.7,99,83,42,30.30,29.90,7,0,10,0.02
2013-9-17,74.3,57.9,44.1,53.5,49.1,43.5,99,76,43,30.33,29.97,3,0,5,0.00
2013-9-18,83.1,67.7,55.6,64.6,57.4,50.8,89,71,47,30.05,29.65,7,1,11,0.00
2013-9-19,75.2,69.8,66.2,69.8,67.7,64.4,99,93,82,29.79,29.55,14,4,21,0.24
2013-9-20,75.2,75.2,75.2,69.3,47.6,44.9,82,39,34,29.96,29.55,8,0,15,0.00
2013-9-21,75.2,70.4,58.3,75.2,56.8,48.5,100,64,51,29.96,29.54,11,0,20,0.04
2013-9-22,68.9,57.0,45.9,52.6,47.7,44.1,99,74,43,29.94,29.64,1,0,2,0.00
2013-9-23,75.9,55.8,42.3,52.4,46.8,42.0,99,76,41,30.08,29.68,10,1,13,0.00
2013-9-24,75.2,59.3,45.9,52.1,48.3,43.5,99,72,36,30.05,29.54,9,1,9,0.04
2013-9-25,81.0,59.8,44.6,58.3,51.7,43.8,99,79,35,29.93,29.58,4,0,7,0.00
2013-9-26,84.7,61.6,45.0,59.4,50.6,41.2,99,74,24,30.02,29.63,2,0,4,0.01
2013-9-27,82.6,66.1,51.3,55.9,50.8,45.9,93,62,29,30.11,29.67,8,1,12,0.00
2013-9-28,83.8,68.7,54.1,59.0,55.9,52.9,98,68,36,30.03,29.53,16,5,22,0.00
2013-9-29,72.9,63.1,50.4,64.7,56.3,50.1,99,80,56,29.83,29.61,12,2,20,0.25
2013-9-30,77.7,60.2,46.0,59.9,52.5,45.2,99,79,42,29.99,29.59,2,0,3,0.00
2013-10-1,81.0,66.3,58.3,66.7,62.0,55.5,99,88,56,29.91,29.53,16,4,28,0.00
2013-10-2,87.6,70.8,58.6,67.4,57.3,42.0,99,70,24,29.88,29.54,10,1,16,0.00
2013-10-3,78.1,67.9,59.7,72.2,65.1,54.6,99,91,76,29.81,29.48,146,2,146,0.08
2013-10-4,80.4,70.5,64.8,72.0,67.7,64.5,99,91,73,29.73,29.56,5,0,7,0.02
2013-10-5,80.2,70.9,64.8,76.2,69.5,64.5,99,96,78,29.68,29.42,14,3,21,0.41
2013-10-6,66.4,59.3,51.3,66.1,55.2,42.5,99,87,56,29.58,29.42,14,2,22,0.35
2013-10-7,65.8,54.5,47.3,53.1,47.2,41.8,96,77,53,30.01,29.58,16,5,28,0.01
2013-10-8,78.3,59.7,46.8,54.2,48.9,42.4,98,72,32,30.20,29.81,6,0,10,0.00
2013-10-9,77.7,62.0,46.0,52.5,47.8,40.6,98,65,28,30.22,29.79,8,1,12,0.00
2013-10-10,81.0,60.6,47.1,56.2,50.6,46.5,99,75,32,30.16,29.76,0,0,2,0.00
2013-10-11,79.5,61.9,48.0,55.0,49.1,42.3,99,69,29,30.11,29.68,0,0,2,0.00
2013-10-12,79.7,64.7,53.2,65.3,57.0,50.1,99,79,47,30.04,29.79,9,1,14,0.05
2013-10-13,66.4,56.8,43.1,56.2,45.6,42.2,98,68,44,30.29,29.64,5,0,7,0.01
2013-10-14,71.8,52.1,37.9,52.8,42.9,37.7,99,76,35,30.44,29.93,0,0,2,0.00
2013-10-15,64.4,56.2,47.3,61.8,53.9,45.0,98,92,82,30.13,29.70,12,2,21,0.14
2013-10-16,61.0,53.0,48.9,60.5,49.3,46.3,99,87,76,29.88,29.73,13,6,20,0.00
2013-10-17,51.4,49.3,48.0,50.4,48.4,42.5,99,97,77,29.89,29.78,12,4,20,0.54
2013-10-18,55.2,47.3,39.7,49.5,43.6,39.5,99,88,73,29.96,29.81,14,2,20,0.01
2013-10-19,55.9,48.3,41.2,48.7,40.0,31.7,99,75,41,29.92,29.72,14,3,23,0.25
2013-10-20,61.2,52.7,42.6,48.0,43.1,39.6,93,72,45,29.95,29.67,22,6,33,0.01
2013-10-21,58.3,48.8,42.3,50.1,41.3,26.8,99,76,54,29.97,29.73,16,6,29,0.14
2013-10-22,50.2,41.7,37.2,38.0,32.6,26.6,99,72,54,30.02,29.92,14,5,26,0.05
2013-10-23,46.4,38.8,34.3,41.7,34.0,25.7,99,85,52,29.99,29.53,10,1,14,0.22
2013-10-24,43.7,39.2,34.9,40.7,33.7,29.5,99,82,61,30.27,29.97,6,0,8,0.27
2013-10-25,49.6,41.3,33.1,40.9,32.9,27.8,99,75,44,30.40,30.14,2,0,5,0.09
2013-10-26,53.6,47.8,43.3,42.4,34.1,27.8,83,59,51,30.16,29.64,12,1,20,0.02
2013-10-27,55.6,46.0,35.2,41.8,35.2,30.6,99,68,41,30.17,29.88,8,0,13,0.00
2013-10-28,65.5,46.1,32.7,43.2,37.0,31.8,99,74,40,30.33,30.05,1,0,2,0.00
2013-10-29,58.8,44.6,33.8,42.8,38.0,32.3,97,79,55,30.44,30.14,1,0,5,0.00
2013-10-30,61.9,53.8,42.4,56.7,49.6,41.1,99,86,70,30.21,29.78,9,1,13,0.66
2013-10-31,61.9,59.0,50.9,61.3,58.7,50.4,99,99,97,29.78,29.06,18,8,31,1.16
2013-11-1,50.7,47.3,44.8,50.4,43.8,33.9,99,88,65,29.73,29.20,24,8,36,0.33
2013-11-2,50.4,45.6,41.0,48.0,43.3,39.6,99,92,74,30.12,29.71,11,3,17,0.47
2013-11-3,51.6,42.7,35.1,41.6,37.7,34.6,99,84,62,30.39,30.12,10,3,16,0.00
2013-11-4,54.7,47.0,39.6,43.6,38.7,35.8,91,74,53,30.37,30.08,23,7,31,0.00
2013-11-5,57.2,53.4,50.7,51.8,47.1,43.6,99,79,69,30.32,30.01,16,6,26,0.00
2013-11-6,58.1,50.6,42.4,54.2,47.6,35.8,99,90,69,30.11,29.77,24,9,31,0.46
2013-11-7,46.4,42.4,39.4,35.8,31.8,28.9,74,66,56,30.22,30.11,19,7,25,0.00
2013-11-8,50.9,42.7,36.1,36.6,30.8,26.9,96,64,43,30.37,30.09,11,4,17,0.09
2013-11-9,57.9,50.6,44.4,45.1,38.2,29.8,77,63,51,30.10,29.82,28,12,43,0.01
2013-11-10,50.2,43.6,38.1,34.4,31.8,27.2,77,63,52,30.33,30.05,24,7,40,0.05
2013-11-11,53.2,38.5,27.0,40.7,33.0,24.0,98,82,56,30.51,30.09,12,4,24,0.31
2013-11-12,41.7,29.7,24.3,34.4,22.5,16.5,97,76,50,30.69,30.50,13,2,18,0.06
2013-11-13,36.7,29.5,19.2,23.1,18.8,12.3,85,65,45,30.63,30.19,19,8,23,0.00
2013-11-14,47.3,39.8,29.3,29.2,24.2,18.0,66,54,45,30.26,29.89,18,10,24,0.00
2013-11-15,48.7,43.5,37.0,35.3,30.8,26.0,68,61,50,30.09,29.93,15,6,21,0.00
2013-11-16,56.1,48.7,42.8,51.7,44.1,32.0,93,84,65,30.12,29.71,18,8,29,0.00
2013-11-17,65.1,49.3,38.3,62.4,43.9,30.9,97,82,70,29.94,29.21,33,16,46,0.01
2013-11-18,39.9,38.3,35.8,32.1,28.4,23.4,76,67,59,30.23,29.90,20,9,46,0.01
2013-11-19,52.2,39.7,33.6,31.2,25.5,22.9,68,58,36,30.39,30.13,7,2,13,0.00
2013-11-20,46.6,37.6,30.9,35.5,27.0,23.1,89,66,44,30.40,30.07,25,7,30,0.09
2013-11-21,53.4,45.6,38.1,45.1,41.5,35.3,97,86,68,30.25,29.67,17,4,23,0.14
2013-11-22,45.5,39.1,30.2,44.7,35.4,24.8,98,87,69,30.53,30.17,15,4,29,0.05
2013-11-23,34.2,27.7,20.8,26.1,14.6,5.8,79,58,45,30.72,30.48,17,7,29,0.00
2013-11-24,27.7,22.9,20.1,16.7,7.2,-2.2,83,51,31,30.78,30.42,15,6,26,0.00
2013-11-25,34.0,26.7,19.4,28.1,14.9,3.2,91,62,46,30.46,30.16,19,10,28,0.00
2013-11-26,36.1,31.5,26.8,28.1,23.4,13.0,83,72,45,30.18,29.99,16,6,25,0.00
2013-11-27,30.7,25.4,21.0,28.0,19.9,16.8,92,80,60,30.38,30.06,14,4,24,0.00
2013-11-28,31.3,26.9,23.0,20.4,15.1,9.6,85,61,46,30.58,30.27,14,5,18,0.00
2013-11-29,43.5,31.5,27.0,23.0,18.4,14.9,72,59,42,30.69,30.04,12,3,17,0.01
2013-11-30,49.5,38.4,30.4,30.7,25.6,20.0,68,60,48,30.59,30.03,17,7,23,0.00
2013-12-1,47.1,37.3,28.4,35.8,28.5,24.5,86,71,50,30.20,29.99,8,1,12,0.00
2013-12-2,43.7,34.6,26.8,30.1,26.5,22.3,90,73,51,30.06,29.82,14,3,21,0.00
2013-12-3,47.7,42.2,33.3,47.4,40.4,29.2,99,93,79,29.88,29.69,14,5,22,0.13
2013-12-4,59.4,50.3,43.9,56.7,48.9,43.4,99,95,77,29.80,29.56,20,6,29,0.00
2013-12-5,57.9,35.4,28.6,53.1,26.8,17.8,86,71,57,30.27,29.58,28,11,43,0.00
2013-12-6,32.4,26.4,24.1,19.8,14.6,10.0,66,61,49,30.45,30.26,9,4,14,0.00
2013-12-7,24.1,21.0,16.7,11.9,8.8,4.9,70,59,54,30.74,30.45,13,4,17,0.00
2013-12-8,30.6,21.7,16.0,28.0,13.1,7.1,92,70,54,30.75,29.96,12,4,16,0.00
2013-12-9,28.9,24.0,15.8,24.8,14.5,2.5,86,67,51,30.26,29.54,25,11,34,0.01
2013-12-10,24.1,16.4,4.1,12.2,4.3,-8.6,74,59,44,30.37,30.09,32,11,46,0.00
2013-12-11,23.7,18.9,14.0,19.3,8.6,-0.9,86,65,46,30.58,30.36,17,7,23,0.00
2013-12-12,25.9,15.0,2.1,15.9,2.2,-13.1,68,57,33,30.62,30.32,21,8,30,0.00
2013-12-13,34.7,23.9,15.4,19.5,12.8,5.9,68,62,52,30.33,30.12,10,3,14,0.00
2013-12-14,27.5,23.7,20.8,20.5,18.0,15.0,84,79,66,30.25,29.95,12,3,21,0.00
2013-12-15,28.9,22.3,18.7,22.5,12.4,4.1,79,66,52,30.23,30.00,22,8,30,0.00
2013-12-16,25.7,18.9,12.2,13.0,7.7,3.3,78,62,45,30.27,30.05,12,3,21,0.00
2013-12-17,33.6,26.6,19.0,26.3,19.9,12.8,90,76,58,30.11,30.00,22,8,28,0.00
2013-12-18,33.6,29.4,25.5,20.7,15.4,7.7,69,56,38,30.24,29.85,23,9,30,0.00
2013-12-19,44.6,39.0,33.1,36.0,32.2,20.7,92,76,60,30.03,29.88,12,4,20,0.01
2013-12-20,40.6,36.1,32.9,40.4,35.6,32.4,99,98,91,29.88,29.56,6,1,9,0.25
2013-12-21,35.2,33.4,31.5,34.7,32.9,7.8,99,98,97,29.96,29.64,7,1,10,0.32
2013-12-22,43.0,34.2,31.1,41.0,31.7,26.4,99,91,76,30.09,29.57,12,3,20,0.22
2013-12-23,32.0,22.7,5.7,26.9,15.4,-1.4,85,73,61,30.53,29.80,22,9,29,0.01
2013-12-24,20.8,13.8,5.7,10.9,5.6,-1.4,75,69,61,30.62,30.48,12,5,17,0.00
2013-12-25,25.9,22.4,15.3,23.4,15.1,7.2,90,73,59,30.62,30.22,19,9,24,0.00
2013-12-26,33.8,27.3,24.6,25.4,19.0,14.0,90,71,57,30.36,30.19,17,8,25,0.00
2013-12-27,43.2,37.0,32.0,31.8,29.1,25.0,85,73,55,30.39,30.13,17,7,29,0.00
2013-12-28,50.7,42.6,34.0,37.5,31.7,27.3,99,66,53,30.26,29.71,29,10,40,0.00
2013-12-29,40.6,32.6,21.9,33.2,25.1,11.2,86,74,63,30.21,29.85,16,7,26,0.00
2013-12-30,21.9,18.2,13.8,11.2,6.7,2.9,77,60,52,30.39,30.21,14,5,21,0.00
2013-12-31,16.5,14.8,13.5,10.0,7.6,5.4,78,73,65,30.50,29.78,19,7,24,0.00
2014-1-1,18.1,14.4,11.5,10.3,7.9,4.4,79,75,68,30.50,30.29,7,2,10,0.00
2014-1-2,21.7,13.5,3.2,9.2,1.2,-10.1,74,59,34,30.50,29.93,12,3,21,0.00